Location: Agadir-Ikarkaouin
(31.1503°N, 9.0246°W)
Time: 04:05:53
(UTC+00:00)

Sich 1 Rocket - Pass Details

Date: 18 September 2020
Orbit: 617 x 652 km, 82.5° (Epoch: 23 October)

Event Time Altitude Azimuth Distance (km) Brightness Sun altitude
Rises 19:15:48 0° 169° (S) 2,898 6.8 -9.0°
Reaches altitude 10° 19:18:06 10° 163° (SSE) 2,000 5.9 -9.5°
Maximum altitude 19:22:17 43° 92° (E) 898 3.9 -10.4°
Drops below altitude 10° 19:26:33 10° 21° (NNE) 2,034 6.1 -11.3°
Sets 19:28:53 0° 15° (NNE) 2,952 7.0 -11.8°
